Location: Unspecified
(0.0000°N, 0.0000°E)
Time: 04:06:16
(UTC+02:00)

Ariane H10 - Visible Passes

Search period start: 31 May 2016 00:00
Search period end: 10 June 2016 00:00
Orbit: 299 x 24101 km, 3.8° (Epoch: 29 May)

Date Brightness Start Highest point End Pass type
(mag) Time Alt. Az. Time Alt. Az. Time Alt. Az.
31 May 7.5 02:32:08 66° E 02:32:08 66° E 08:00:17 10° E visible
01 Jun 8.0 06:32:21 15° W 09:09:23 68° WSW 12:36:54 10° E visible
02 Jun 7.3 03:32:30 83° SW 03:35:23 86° S 09:16:13 10° E visible
03 Jun 8.2 00:32:37 22° E 00:32:37 22° E 01:05:56 10° E visible
03 Jun 2.3 20:56:29 10° WNW 20:58:27 42° N 21:00:17 19° ENE visible
04 Jun 7.5 04:32:46 57° W 05:02:22 85° S 10:25:49 10° E visible
05 Jun 7.8 01:32:51 43° E 01:32:51 43° E 06:33:31 10° E visible
05 Jun 3.8 21:59:04 10° WNW 22:00:22 31° WNW 22:00:22 31° WNW visible
06 Jun 7.8 05:32:56 33° W 10:18:43 87° S 11:32:16 10° E visible
07 Jun 7.5 02:32:58 68° ESE 02:32:58 68° ESE 08:02:41 10° E visible
07 Jun6.223:32:59E23:32:59E23:00:20Wvisible
08 Jun 7.9 06:33:01 14° W 09:10:03 65° W 12:36:53 10° E visible
09 Jun 7.4 03:33:00 81° SW 03:37:03 85° S 09:16:58 10° E visible
